W2JV-2 Weather Reports


Display with metric or nautical units.
time (UTC)temp
F
wind
direction
speed
MPH
gust
MPH
rain 1hr
in
rain 24hr
in
rain mn
in
humidity
%
barometer
mb
20260904220003 79 31 0.0 0.0 0.00 0.34 0.34 66 1009.6
20260904215504 79 20 0.0 0.0 0.00 0.34 0.34 64 1009.6
20260904214503 80 62 0.0 0.0 0.00 0.34 0.34 64 1009.6
20260904214004 80 21 0.0 0.0 0.00 0.34 0.34 64 1009.6
20260904213502 80 26 0.0 0.0 0.00 0.34 0.34 63 1009.6
20260904213003 80 71 1.0 3.0 0.00 0.34 0.34 63 1009.5
20260904212503 80 9 0.0 1.0 0.00 0.34 0.34 63 1009.5
20260904211502 80 12 1.0 3.0 0.00 0.34 0.34 63 1009.6
20260904211002 80 80 0.0 1.0 0.00 0.34 0.34 65 1009.6
20260904210503 80 61 1.0 3.0 0.00 0.34 0.34 64 1009.7
20260904205502 80 336 0.0 2.0 0.00 0.34 0.34 63 1009.8
20260904204502 81 268 1.0 5.0 0.00 0.34 0.34 62 1009.8
20260904204002 81 276 1.0 2.0 0.00 0.34 0.34 64 1009.8
20260904203503 81 2 1.0 3.0 0.00 0.34 0.34 62 1009.8
20260904203004 81 320 0.0 2.0 0.00 0.34 0.34 61 1009.9
20260904202503 81 346 1.0 2.0 0.00 0.34 0.34 60 1009.9
20260904202003 81 20 1.0 3.0 0.00 0.34 0.34 58 1009.9
20260904201003 81 322 1.0 3.0 0.00 0.34 0.34 60 1009.9
20260904200003 82 334 1.0 2.0 0.00 0.34 0.34 60 1009.9
20260904195502 82 343 1.0 5.0 0.00 0.34 0.34 58 1009.9
20260904195002 81 59 1.0 3.0 0.00 0.34 0.34 60 1010.0
20260904194503 81 71 0.0 2.0 0.00 0.34 0.34 59 1010.0
20260904194003 81 5 2.0 3.0 0.00 0.34 0.34 60 1010.1
20260904193502 81 19 1.0 3.0 0.00 0.34 0.34 61 1010.1
20260904193002 82 304 0.0 2.0 0.00 0.34 0.34 61 1010.3
20260904192502 82 308 1.0 2.0 0.00 0.34 0.34 62 1010.4
20260904192002 82 358 0.0 0.0 0.00 0.34 0.34 62 1010.4
20260904191503 82 41 1.0 2.0 0.00 0.34 0.34 62 1010.5
20260904191003 82 355 1.0 3.0 0.00 0.34 0.34 63 1010.5
20260904190502 82 27 1.0 3.0 0.00 0.34 0.34 60 1010.5
20260904190002 82 300 1.0 3.0 0.00 0.34 0.34 60 1010.4
20260904185502 82 6 1.0 2.0 0.00 0.34 0.34 58 1010.3
20260904185002 82 354 2.0 3.0 0.00 0.34 0.34 63 1010.3
20260904184502 82 356 1.0 3.0 0.00 0.34 0.34 64 1010.4
20260904184003 82 329 1.0 3.0 0.00 0.34 0.34 64 1010.4
20260904183003 82 334 2.0 3.0 0.00 0.34 0.34 63 1010.5
20260904182503 82 10 1.0 3.0 0.00 0.34 0.34 65 1010.4
20260904182003 82 6 1.0 5.0 0.00 0.34 0.34 65 1010.3
20260904181003 82 6 0.0 3.0 0.00 0.34 0.34 64 1010.3
20260904180504 82 32 1.0 3.0 0.00 0.34 0.34 64 1010.4
20260904180003 82 344 1.0 5.0 0.00 0.34 0.34 63 1010.4
20260904175503 82 35 3.0 6.0 0.00 0.34 0.34 63 1010.5
20260904175003 82 0 2.0 5.0 0.00 0.34 0.34 66 1010.5
20260904174503 82 25 2.0 5.0 0.00 0.34 0.34 66 1010.3
20260904174003 82 27 2.0 3.0 0.00 0.34 0.34 67 1010.3
20260904173503 82 8 2.0 5.0 0.00 0.34 0.34 65 1010.3
20260904173003 82 1 1.0 3.0 0.00 0.34 0.34 68 1010.4
20260904172002 82 2 2.0 5.0 0.00 0.34 0.34 69 1010.3
20260904171504 81 7 1.0 3.0 0.00 0.34 0.34 69 1010.4
20260904170503 81 344 2.0 6.0 0.00 0.34 0.34 68 1010.5
20260904170004 81 340 1.0 6.0 0.00 0.34 0.34 68 1010.5
20260904165502 81 17 1.0 6.0 0.00 0.34 0.34 70 1010.5
20260904165003 81 346 1.0 5.0 0.00 0.34 0.34 73 1010.5
20260904164502 81 4 1.0 3.0 0.00 0.34 0.34 73 1010.3
20260904164002 81 338 1.0 3.0 0.00 0.34 0.34 74 1010.4
20260904163502 81 38 2.0 5.0 0.00 0.34 0.34 75 1010.4
20260904163003 81 37 2.0 3.0 0.00 0.34 0.34 74 1010.3
20260904162503 80 46 2.0 5.0 0.00 0.34 0.34 74 1010.4
20260904161503 80 6 2.0 3.0 0.00 0.34 0.34 75 1010.4
20260904160004 79 16 3.0 10.0 0.00 0.34 0.34 77 1010.6
20260904155503 78 22 3.0 5.0 0.00 0.34 0.34 79 1010.7
20260904155003 78 350 2.0 3.0 0.00 0.34 0.34 80 1010.8
20260904154502 78 33 2.0 3.0 0.00 0.34 0.34 81 1010.8
20260904154003 78 31 2.0 3.0 0.00 0.34 0.34 82 1010.8
20260904153502 77 38 2.0 6.0 0.00 0.34 0.34 82 1010.9
20260904152002 77 38 3.0 7.0 0.00 0.34 0.34 85 1010.9
20260904151503 77 42 2.0 6.0 0.00 0.34 0.34 85 1010.8
20260904151003 76 332 2.0 6.0 0.00 0.34 0.34 86 1010.9
20260904150502 76 295 1.0 3.0 0.00 0.34 0.34 87 1010.9
20260904150003 76 21 2.0 3.0 0.00 0.34 0.34 86 1010.8
20260904145503 76 26 1.0 6.0 0.00 0.34 0.34 87 1010.8
20260904145003 76 10 2.0 5.0 0.00 0.34 0.34 88 1010.8
20260904144503 75 337 1.0 3.0 0.00 0.34 0.34 88 1010.7
20260904144003 75 329 1.0 3.0 0.00 0.34 0.34 88 1010.7
20260904143502 75 19 1.0 3.0 0.00 0.34 0.34 88 1010.8
20260904143004 75 28 2.0 3.0 0.00 0.34 0.34 88 1010.9
20260904142503 75 23 1.0 3.0 0.00 0.34 0.34 88 1010.9
20260904141503 74 11 1.0 2.0 0.00 0.34 0.34 88 1010.8
20260904141004 74 5 2.0 3.0 0.00 0.34 0.34 88 1010.8
20260904140502 74 30 3.0 5.0 0.00 0.34 0.34 88 1010.7
20260904135503 74 8 0.0 2.0 0.00 0.34 0.34 89 1010.6
20260904135003 74 16 1.0 3.0 0.00 0.34 0.34 88 1010.6
20260904134503 74 15 1.0 3.0 0.00 0.34 0.34 89 1010.5
20260904134003 74 1 2.0 5.0 0.00 0.34 0.34 89 1010.6
20260904133002 73 356 1.0 3.0 0.00 0.34 0.34 89 1010.6
20260904132002 73 52 2.0 5.0 0.00 0.34 0.34 89 1010.5
20260904131003 73 11 1.0 3.0 0.00 0.34 0.34 89 1010.5
20260904130502 73 20 2.0 3.0 0.00 0.34 0.34 89 1010.5
20260904130004 73 15 1.0 3.0 0.00 0.34 0.34 89 1010.6
20260904125503 73 4 1.0 3.0 0.00 0.34 0.34 89 1010.6
20260904124503 73 356 1.0 3.0 0.00 0.34 0.34 89 1010.6
20260904123503 73 353 1.0 3.0 0.00 0.34 0.34 88 1010.5
20260904123003 73 8 1.0 3.0 0.00 0.34 0.34 88 1010.5
20260904122503 73 8 1.0 3.0 0.00 0.34 0.34 88 1010.5
20260904121503 73 20 1.0 3.0 0.00 0.34 0.34 88 1010.5
20260904120504 73 1 1.0 3.0 0.00 0.34 0.34 88 1010.6
20260904115504 73 356 1.0 2.0 0.00 0.34 0.34 88 1010.6
20260904115003 73 18 1.0 3.0 0.00 0.34 0.34 88 1010.6
20260904114502 73 15 1.0 2.0 0.00 0.34 0.34 88 1010.6
20260904114002 73 7 1.0 3.0 0.00 0.34 0.34 88 1010.6
20260904113503 73 17 1.0 3.0 0.00 0.34 0.34 88 1010.5
20260904113004 73 9 1.0 2.0 0.00 0.34 0.34 88 1010.5
20260904112504 73 15 1.0 3.0 0.00 0.34 0.34 88 1010.4
20260904112003 73 41 1.0 3.0 0.00 0.34 0.34 88 1010.4
20260904111502 73 16 1.0 3.0 0.00 0.34 0.34 88 1010.5
20260904111003 73 13 1.0 3.0 0.00 0.34 0.34 88 1010.4
20260904110502 73 21 1.0 2.0 0.00 0.34 0.34 88 1010.4
20260904110003 73 21 1.0 2.0 0.00 0.34 0.34 88 1010.3
20260904105504 73 21 1.0 2.0 0.00 0.34 0.34 88 1010.2
20260904105004 73 21 0.0 1.0 0.00 0.34 0.34 88 1010.2
20260904104503 73 21 1.0 2.0 0.00 0.34 0.34 88 1010.1
20260904103002 73 21 0.0 1.0 0.00 0.34 0.34 88 1010.0
20260904102502 73 21 0.0 1.0 0.00 0.34 0.34 88 1010.0
20260904102002 73 21 1.0 1.0 0.00 0.34 0.34 88 1010.0
20260904101003 73 21 0.0 1.0 0.00 0.34 0.34 88 1009.7
20260904100503 73 21 0.0 0.0 0.00 0.34 0.34 88 1009.7
20260904100002 74 21 0.0 0.0 0.00 0.34 0.34 88 1009.6
20260904095502 74 21 0.0 0.0 0.00 0.34 0.34 88 1009.5
20260904094503 74 21 0.0 1.0 0.00 0.34 0.34 88 1009.5
20260904094002 74 21 0.0 0.0 0.00 0.34 0.34 88 1009.4
20260904093502 74 21 0.0 0.0 0.00 0.34 0.34 88 1009.4
20260904093002 74 21 0.0 1.0 0.00 0.34 0.34 88 1009.4
20260904092503 74 21 0.0 0.0 0.00 0.34 0.34 88 1009.4
20260904092003 74 21 0.0 1.0 0.00 0.34 0.34 88 1009.6
20260904091002 74 21 0.0 1.0 0.00 0.34 0.34 88 1009.4
20260904090502 74 21 1.0 2.0 0.00 0.34 0.34 88 1009.6
20260904090003 74 21 0.0 0.0 0.00 0.34 0.34 88 1009.5
20260904085503 74 21 0.0 0.0 0.00 0.34 0.34 88 1009.4
20260904084504 74 21 0.0 1.0 0.00 0.34 0.34 88 1009.5
20260904084004 74 21 0.0 2.0 0.00 0.34 0.34 88 1009.5
20260904083504 74 21 0.0 0.0 0.00 0.34 0.34 88 1009.6
20260904083003 74 21 1.0 1.0 0.00 0.34 0.34 88 1009.8
20260904082502 74 21 1.0 3.0 0.00 0.34 0.34 88 1009.7
20260904082003 74 4 0.0 0.0 0.00 0.34 0.34 88 1009.8
20260904081503 74 292 0.0 0.0 0.00 0.34 0.34 88 1009.6
20260904081003 74 292 0.0 0.0 0.00 0.34 0.34 88 1009.5
20260904080503 74 292 0.0 0.0 0.00 0.34 0.34 88 1009.5
20260904080003 74 292 0.0 0.0 0.00 0.34 0.34 88 1009.5
20260904075504 74 292 0.0 0.0 0.00 0.34 0.34 88 1009.4
20260904074503 74 292 0.0 0.0 0.00 0.35 0.34 88 1009.6
20260904074002 74 292 0.0 0.0 0.00 0.35 0.34 88 1009.6
20260904073502 74 292 0.0 0.0 0.00 0.35 0.34 88 1009.6
20260904073002 74 292 0.0 1.0 0.02 0.35 0.34 87 1009.5
20260904072502 74 292 0.0 2.0 0.20 0.35 0.34 87 1009.4
20260904072004 74 260 0.0 2.0 0.21 0.36 0.34 87 1009.5
20260904071503 75 257 0.0 0.0 0.21 0.36 0.34 87 1009.4
20260904071002 75 257 0.0 0.0 0.21 0.36 0.34 87 1009.6
20260904070502 75 330 0.0 0.0 0.22 0.36 0.34 87 1009.8
20260904065503 75 15 0.0 3.0 0.34 0.36 0.34 87 1009.8
20260904065003 75 30 1.0 3.0 0.34 0.36 0.34 87 1010.0
20260904064003 75 346 1.0 2.0 0.34 0.36 0.34 86 1009.8
20260904063502 75 257 2.0 3.0 0.34 0.37 0.34 86 1009.7
20260904063003 75 47 2.0 3.0 0.32 0.35 0.32 85 1009.8
20260904062503 76 297 0.0 0.0 0.14 0.17 0.14 85 1010.1
20260904062004 76 34 0.0 1.0 0.13 0.16 0.13 85 1009.9
20260904061503 76 34 1.0 2.0 0.13 0.16 0.13 84 1010.0
20260904061002 76 138 1.0 3.0 0.13 0.16 0.13 84 1010.1
20260904060503 76 3 2.0 8.0 0.12 0.15 0.12 84 1010.4
20260904060003 76 54 2.0 5.0 0.11 0.14 0.11 84 1010.4
20260904055503 76 348 1.0 3.0 0.00 0.03 0.00 84 1010.4
20260904055003 76 212 0.0 0.0 0.00 0.04 0.00 84 1010.1
20260904054003 76 212 0.0 0.0 0.00 0.04 0.00 84 1010.3
20260904053003 76 212 0.0 0.0 0.00 0.04 0.00 84 1010.3
20260904052503 76 212 0.0 0.0 0.00 0.04 0.00 84 1010.6
20260904052003 76 212 0.0 0.0 0.00 0.05 0.00 84 1010.5
20260904051502 76 212 1.0 3.0 0.00 0.05 0.00 84 1010.7
20260904051002 76 226 1.0 2.0 0.00 0.05 0.00 84 1010.6
20260904050502 76 230 2.0 3.0 0.00 0.05 0.00 83 1010.7
20260904050002 76 223 1.0 2.0 0.00 0.05 0.00 83 1010.6
20260904044503 76 198 1.0 3.0 0.00 0.05 0.00 84 1010.8
20260904044003 76 198 1.0 3.0 0.00 0.05 0.00 84 1011.0
20260904043504 76 202 1.0 3.0 0.00 0.05 0.00 84 1011.0
20260904042503 76 216 2.0 3.0 0.00 0.05 0.00 84 1011.2
20260904042004 76 226 2.0 3.0 0.00 0.05 0.00 84 1011.2
20260904041503 76 209 2.0 3.0 0.00 0.05 0.00 83 1011.2
20260904041003 76 221 1.0 3.0 0.00 0.05 0.00 83 1011.1
20260904040504 76 209 1.0 3.0 0.00 0.05 0.00 83 1011.0
20260904040003 76 210 1.0 3.0 0.00 0.05 0.00 83 1011.1
20260904035503 76 240 1.0 2.0 0.00 0.05 0.05 83 1011.3
20260904033503 76 184 1.0 2.0 0.00 0.05 0.05 83 1011.2
20260904033003 76 219 1.0 3.0 0.00 0.05 0.05 83 1011.2
20260904032004 76 186 1.0 2.0 0.00 0.05 0.05 83 1011.0
20260904031003 76 202 1.0 3.0 0.00 0.05 0.05 83 1011.3
20260904030504 76 231 1.0 2.0 0.00 0.05 0.05 83 1011.3
20260904030002 76 204 1.0 2.0 0.00 0.05 0.05 83 1011.3
20260904025503 76 167 1.0 2.0 0.00 0.05 0.05 83 1011.5
20260904025004 76 166 1.0 3.0 0.00 0.05 0.05 83 1011.5
20260904024503 76 219 1.0 3.0 0.00 0.05 0.05 83 1011.7
20260904024003 76 212 1.0 2.0 0.00 0.05 0.05 83 1011.8
20260904023503 76 201 1.0 3.0 0.00 0.05 0.05 83 1011.8
20260904023003 76 219 1.0 3.0 0.00 0.05 0.05 83 1011.9
20260904022503 76 212 1.0 3.0 0.00 0.05 0.05 83 1012.0
20260904021503 76 182 0.0 0.0 0.00 0.05 0.05 83 1012.0
20260904020504 76 182 0.0 0.0 0.00 0.05 0.05 82 1011.9
20260904015003 76 182 0.0 0.0 0.00 0.05 0.05 82 1011.9
20260904014503 76 182 0.0 0.0 0.00 0.05 0.05 82 1012.1
20260904014003 76 182 0.0 2.0 0.00 0.05 0.05 82 1012.1
20260904013502 76 182 1.0 2.0 0.00 0.05 0.05 82 1012.1
20260904013002 76 182 1.0 2.0 0.00 0.05 0.05 82 1012.3
20260904012503 76 182 0.0 0.0 0.00 0.05 0.05 82 1012.3
20260904012003 76 182 0.0 0.0 0.00 0.05 0.05 81 1012.2
20260904011503 76 182 0.0 0.0 0.00 0.05 0.05 81 1012.1
20260904011004 76 182 0.0 2.0 0.00 0.05 0.05 81 1012.1
20260904010004 76 182 0.0 0.0 0.00 0.05 0.05 81 1012.3
20260904005503 76 182 0.0 0.0 0.00 0.05 0.05 81 1012.4
20260904004503 76 182 1.0 2.0 0.00 0.05 0.05 81 1012.2
20260904004003 77 182 1.0 2.0 0.00 0.05 0.05 81 1012.0
20260904003004 77 182 1.0 2.0 0.00 0.05 0.05 80 1011.9
20260904002504 77 209 1.0 2.0 0.00 0.05 0.05 80 1012.0
20260904002003 77 190 1.0 3.0 0.00 0.05 0.05 80 1012.0
20260904001504 77 215 1.0 3.0 0.00 0.05 0.05 80 1012.0
20260904001004 77 207 0.0 0.0 0.00 0.05 0.05 80 1011.9
20260904000504 77 207 0.0 2.0 0.00 0.05 0.05 80 1011.9
20260903235003 78 189 1.0 2.0 0.00 0.05 0.05 79 1011.6
20260903234504 78 199 0.0 2.0 0.00 0.05 0.05 79 1011.4
20260903234004 78 172 0.0 3.0 0.00 0.05 0.05 79 1011.3
20260903233504 79 163 1.0 2.0 0.00 0.05 0.05 79 1011.3
20260903233003 79 188 0.0 0.0 0.00 0.05 0.05 79 1011.4
20260903232002 79 210 0.0 2.0 0.00 0.05 0.05 78 1011.4
20260903231504 80 210 0.0 2.0 0.00 0.05 0.05 78 1011.4
20260903230503 80 226 0.0 0.0 0.00 0.05 0.05 78 1011.7
20260903230003 80 226 0.0 0.0 0.00 0.05 0.05 78 1011.7
20260903225503 81 226 0.0 0.0 0.00 0.05 0.05 78 1011.7
20260903225003 81 226 0.0 0.0 0.00 0.05 0.05 77 1011.8
20260903224503 81 226 0.0 1.0 0.00 0.05 0.05 77 1011.9
20260903223503 81 259 0.0 1.0 0.00 0.05 0.05 77 1011.9
20260903223003 81 259 0.0 1.0 0.00 0.05 0.05 77 1011.9
20260903222504 81 206 0.0 1.0 0.00 0.05 0.05 78 1011.9
20260903222004 81 206 0.0 3.0 0.00 0.05 0.05 77 1011.8
20260903221003 81 129 0.0 0.0 0.00 0.05 0.05 76 1011.7